Regional Weather Roundup
Issued by NWS Memphis, TN

Home | Current Version | Previous Version | Text Only | Print | Product List | Glossary On
Versions: 1 2 3 4 5 6 7 8 9 10 11 12 13 14 15 16 17 18 19 20 21 22 23 24 25 26 27 28 29 30 31 32 33 34 35 36 37 38 39 40 41 42 43 44 45 46 47 48 49 50
000
ASUS44 KMEG 041010
RWRMEG
MEMPHIS CWA HOURLY WEATHER ROUNDUP
NATIONAL WEATHER SERVICE MEMPHIS TN
500 AM CDT SAT JUL 04 2015

...WEST TENNESSEE...

CITY           SKY/WX    TMP DP  RH WIND       PRES   REMARKS
MEMPHIS INTL   CLOUDY    73  69  87 CALM      29.93S
NWS MEMPHIS      N/A     71 N/A N/A MISG        N/A
JACKSON        CLOUDY    71  69  93 CALM      29.93R
LEXINGTON      CLOUDY    70  70 100 S6        29.93R
DYERSBURG        N/A    N/A N/A N/A MISG        N/A
PARIS          CLOUDY    70  70 100 SW3       29.93R


...EASTERN ARKANSAS...

CITY           SKY/WX    TMP DP  RH WIND       PRES   REMARKS
JONESBORO      FOG       69  69 100 N3        29.92S VSB 1/2
WEST MEMPHIS   CLOUDY    73  72  96 SW6       29.93R
BATESVILLE     MOCLDY    66  66 100 CALM      29.93R
NEWPORT        PTCLDY    70  70 100 CALM      29.94R
WALNUT RIDGE   CLOUDY    72  70  94 CALM      29.93R VSB 1/4
BLYTHEVILLE    PTCLDY    72  72 100 CALM      29.93R
SEARCY         CLOUDY    69  69 100 CALM      29.95R
STUTTGART      CLOUDY    72  68  88 W3        29.93S
PINE BLUFF     LGT RAIN  72  70  93 CALM      29.95R
MONTICELLO     RAIN      72  70  93 W8        29.96F


...NORTH MISSISSIPPI...

CITY           SKY/WX    TMP DP  RH WIND       PRES   REMARKS
TUPELO         LGT RAIN  70  68  93 S8        29.95F
OLIVE BRANCH     N/A     70 N/A N/A S5        29.94R
TUNICA         MOCLDY    70  70 100 S3        29.95R
CLARKSDALE     MOCLDY    72  72 100 CALM      29.96R
CORINTH        LGT RAIN  70  68  94 CALM      29.94R
GREENWOOD      CLOUDY    77  73  87 SW9       29.96R
COLUMBUS       CLOUDY    72  70  94 SE5       29.96F
STARKVILLE     FAIR      70  68  94 CALM      29.97R
GOLDEN TRIANGL MOCLDY    72  68  88 NE3       29.97R


...SOUTHEAST MISSOURI...

CITY           SKY/WX    TMP DP  RH WIND       PRES   REMARKS
WEST PLAINS    CLEAR     65  62  90 CALM      29.98R
POPLAR BLUFF   CLEAR     69  67  93 NW3       29.92R
CAPE GIRARDEAU CLEAR     68  67  96 CALM      29.92R


...NORTHWEST ALABAMA...

CITY           SKY/WX    TMP DP  RH WIND       PRES   REMARKS
MUSCLE SHOALS  CLOUDY    70  67  90 S6        29.98R


...MIDDLE TENNESSEE...

CITY           SKY/WX    TMP DP  RH WIND       PRES   REMARKS
NASHVILLE      CLOUDY    70  70 100 CALM      29.94R
CLARKSVILLE    CLOUDY    71  70  96 W5        29.93R FOG
COLUMBIA       CLOUDY    72  72 100 SW5       29.94R


...WESTERN KENTUCKY...

CITY           SKY/WX    TMP DP  RH WIND       PRES   REMARKS
PADUCAH        CLOUDY    70  68  93 CALM      29.91R FOG
FORT CAMPBELL  CLOUDY    70  70 100 N1        29.93R FOG


...CENTRAL ARKANSAS...

CITY           SKY/WX    TMP DP  RH WIND       PRES   REMARKS
LITTLE ROCK    MOCLDY    70  67  90 CALM      29.94F


SKY/WX REPORTED AS FAIR MEANS FEW OR NO CLOUDS BELOW
12 THOUSAND FEET.




USA.gov is the U.S. government's official web portal to all federal, state and local government web resources and services.